Date String (YYYY-MM-DD hh:mm:ss) UTC,Instrument flags,Ambient pressure (hPa),Sample flow (lpm),Bypass flow (lpm),Sample temperature (°C),Ambient temperature (°C),ASC tube jacket temperature (°C),LED temperature (°C),Box temperature (°C),Sample RH (%),Span deviation,Mass concentration (μg/m³),Mass concentration (μg/m³),Mass concentration (μg/m³)
DateTimeUTC,F1_M11,P_M11,Q1_M11,Q2_M11,T1_M11,T2_M11,T3_M11,T4_M11,T5_M11,U1_M11,ZSPAN_M11,X0_M11,X2_M11,X1_M11
2022-04-24 14:00:00,,0825.6,5.00,0.00,21.6,20.9,00.0,30.6,23.3,16.7,0000.0,0006.67,0002.12,0001.43
2022-04-24 14:01:00,,0825.5,5.01,0.00,21.6,21.0,00.0,30.6,23.3,16.8,0000.0,0006.57,0002.11,0001.43
2022-04-24 14:02:00,,0825.5,4.99,0.00,21.6,21.0,00.0,30.6,23.3,17.1,0000.0,0006.52,0002.11,0001.45
2022-04-24 14:03:00,,0825.6,4.99,0.00,21.6,21.0,00.0,30.6,23.3,16.7,0000.0,0007.03,0002.11,0001.46
2022-04-24 14:04:00,,0825.6,5.01,0.00,21.6,21.0,00.0,30.6,23.3,16.5,0000.0,0007.82,0002.16,0001.48
2022-04-24 14:05:00,,0825.6,5.00,0.00,21.6,21.0,00.0,30.6,23.3,16.5,0000.0,0007.76,0002.19,0001.49
2022-04-24 14:06:00,,0825.6,5.00,0.00,21.6,21.0,00.0,30.6,23.3,16.6,0000.0,0007.60,0002.25,0001.49
2022-04-24 14:07:00,,0825.7,4.98,0.00,21.6,21.0,00.0,30.6,23.4,16.6,0000.0,0007.51,0002.33,0001.50
2022-04-24 14:08:00,,0825.7,5.00,0.00,21.6,21.0,00.0,30.6,23.4,16.6,0000.0,0007.49,0002.38,0001.52
2022-04-24 14:09:00,,0825.7,5.00,0.00,21.6,21.0,00.0,30.6,23.4,16.6,0000.0,0007.80,0002.50,0001.55
2022-04-24 14:10:00,,0825.7,5.00,0.00,21.6,21.0,00.0,30.6,23.4,16.6,0000.0,0007.81,0002.50,0001.57
2022-04-24 14:11:00,,0825.8,5.00,0.00,21.7,21.1,00.0,30.6,23.4,16.7,0000.0,0007.77,0002.50,0001.59
2022-04-24 14:12:00,,0825.7,5.01,0.00,21.7,21.1,00.0,30.6,23.5,16.5,0000.0,0007.74,0002.52,0001.61
2022-04-24 14:13:00,,0825.7,4.99,0.00,21.7,21.1,00.0,30.6,23.5,16.6,0000.0,0007.77,0002.55,0001.63
2022-04-24 14:14:00,,0825.8,5.00,0.00,21.7,21.1,00.0,30.6,23.5,16.6,0000.0,0007.41,0002.58,0001.64
2022-04-24 14:15:00,,0825.8,4.99,0.00,21.7,21.2,00.0,30.6,23.6,16.6,0000.0,0006.29,0002.59,0001.66
2022-04-24 14:16:00,,0825.9,5.00,0.00,21.8,21.2,00.0,30.6,23.6,16.7,0000.0,0005.87,0002.56,0001.68
2022-04-24 14:17:00,,0825.9,5.00,0.00,21.8,21.3,00.0,30.6,23.6,16.3,0000.0,0005.24,0002.53,0001.70
2022-04-24 14:18:00,,0825.9,5.00,0.00,21.8,21.3,00.0,30.6,23.6,16.3,0000.0,0005.16,0002.52,0001.72
2022-04-24 14:19:00,,0825.9,5.00,0.00,21.8,21.2,00.0,30.6,23.5,16.5,0000.0,0005.83,0002.53,0001.73
2022-04-24 14:20:00,,0825.9,5.00,0.00,21.8,21.2,00.0,30.6,23.6,16.3,0000.0,0005.41,0002.50,0001.73
2022-04-24 14:21:00,,0825.9,5.01,0.00,21.8,21.2,00.0,30.7,23.6,16.3,0000.0,0005.77,0002.52,0001.74
2022-04-24 14:22:00,,0825.8,5.00,0.00,21.8,21.3,00.0,30.7,23.6,16.4,0000.0,0006.84,0002.57,0001.75
2022-04-24 14:23:00,,0825.8,4.99,0.00,21.8,21.3,00.0,30.7,23.6,16.2,0000.0,0006.86,0002.58,0001.76
2022-04-24 14:24:00,,0825.8,4.99,0.00,21.8,21.3,00.0,30.7,23.7,16.2,0000.0,0006.87,0002.56,0001.75
2022-04-24 14:25:00,,0825.8,5.00,0.00,21.9,21.3,00.0,30.7,23.7,16.2,0000.0,0007.92,0002.57,0001.75
2022-04-24 14:26:00,,0825.9,5.01,0.00,21.9,21.3,00.0,30.7,23.7,16.2,0000.0,0008.14,0002.59,0001.74
2022-04-24 14:27:00,,0826.0,5.01,0.00,21.9,21.3,00.0,30.7,23.7,16.2,0000.0,0008.21,0002.64,0001.76
2022-04-24 14:28:00,,0826.0,5.00,0.00,21.9,21.3,00.0,30.7,23.7,16.2,0000.0,0008.33,0002.63,0001.76
2022-04-24 14:29:00,,0826.0,5.00,0.00,21.9,21.3,00.0,30.7,23.7,16.2,0000.0,0008.39,0002.61,0001.77
2022-04-24 14:30:00,,0826.0,5.00,0.00,21.9,21.3,00.0,30.7,23.7,16.2,0000.0,0007.94,0002.61,0001.78
2022-04-24 14:31:00,,0826.0,5.00,0.00,21.9,21.3,00.0,30.8,23.7,16.3,0000.0,0007.86,0002.57,0001.78
2022-04-24 14:32:00,,0826.0,5.00,0.00,21.9,21.3,00.0,30.8,23.7,16.2,0000.0,0007.59,0002.60,0001.79
2022-04-24 14:33:00,,0826.1,4.99,0.00,21.9,21.3,00.0,30.8,23.7,16.4,0000.0,0007.07,0002.59,0001.78
2022-04-24 14:34:00,,0826.0,5.00,0.00,21.9,21.3,00.0,30.8,23.7,16.3,0000.0,0007.22,0002.58,0001.79
2022-04-24 14:35:00,,0826.0,5.00,0.00,21.9,21.4,00.0,30.8,23.7,16.5,0000.0,0007.24,0002.59,0001.81
2022-04-24 14:36:00,,0826.1,5.00,0.00,21.9,21.4,00.0,30.8,23.7,16.4,0000.0,0005.94,0002.61,0001.82
2022-04-24 14:37:00,,0826.1,5.00,0.00,21.9,21.4,00.0,30.8,23.7,16.3,0000.0,0005.47,0002.66,0001.84
2022-04-24 14:38:00,,0826.1,5.00,0.00,21.9,21.4,00.0,30.8,23.7,16.4,0000.0,0005.18,0002.65,0001.85
2022-04-24 14:39:00,,0826.2,5.00,0.00,21.9,21.4,00.0,30.8,23.8,16.2,0000.0,0006.00,0002.64,0001.85
2022-04-24 14:40:00,,0826.2,5.01,0.00,21.9,21.4,00.0,30.8,23.8,16.2,0000.0,0005.79,0002.67,0001.86
2022-04-24 14:41:00,,0826.2,5.01,0.00,22.0,21.4,00.0,30.8,23.8,16.2,0000.0,0005.94,0002.70,0001.87
2022-04-24 14:42:00,,0826.1,4.99,0.00,22.0,21.4,00.0,30.8,23.8,16.0,0000.0,0006.14,0002.70,0001.88
2022-04-24 14:43:00,,0826.1,5.01,0.00,22.0,21.4,00.0,30.8,23.8,16.0,0000.0,0006.08,0002.70,0001.88
2022-04-24 14:44:00,,0826.1,4.99,0.00,22.0,21.4,00.0,30.8,23.8,15.8,0000.0,0006.54,0002.66,0001.87
2022-04-24 14:45:00,,0826.2,5.00,0.00,22.0,21.4,00.0,30.9,23.8,15.9,0000.0,0006.61,0002.62,0001.86
2022-04-24 14:46:00,,0826.2,5.00,0.00,22.0,21.4,00.0,30.9,23.8,16.1,0000.0,0006.92,0002.62,0001.84
2022-04-24 14:47:00,,0826.2,5.01,0.00,22.0,21.5,00.0,30.9,23.8,15.9,0000.0,0007.41,0002.61,0001.82
2022-04-24 14:48:00,,0826.2,5.00,0.00,22.0,21.5,00.0,30.9,23.8,15.9,0000.0,0007.68,0002.52,0001.78
2022-04-24 14:49:00,,0826.2,5.00,0.00,22.0,21.5,00.0,30.9,23.8,15.8,0000.0,0007.86,0002.49,0001.76
2022-04-24 14:50:00,,0826.2,5.01,0.00,22.0,21.5,00.0,30.9,23.8,15.9,0000.0,0007.79,0002.48,0001.74
2022-04-24 14:51:00,,0826.3,5.00,0.00,22.0,21.5,00.0,30.9,23.8,15.6,0000.0,0007.58,0002.43,0001.72
2022-04-24 14:52:00,,0826.2,4.99,0.00,22.0,21.5,00.0,30.9,23.8,15.7,0000.0,0007.63,0002.40,0001.69
2022-04-24 14:53:00,,0826.2,5.00,0.00,22.0,21.5,00.0,30.9,23.8,15.5,0000.0,0007.90,0002.36,0001.64
2022-04-24 14:54:00,,0826.2,5.00,0.00,22.0,21.5,00.0,30.9,23.8,15.6,0000.0,0008.71,0002.29,0001.60
2022-04-24 14:55:00,,0826.3,5.01,0.00,22.0,21.5,00.0,30.9,23.8,15.7,0000.0,0008.46,0002.23,0001.59
2022-04-24 14:56:00,,0826.3,5.01,0.00,22.0,21.5,00.0,30.9,23.9,15.7,0000.0,0008.35,0002.27,0001.59
2022-04-24 14:57:00,,0826.3,4.99,0.00,22.0,21.5,00.0,30.9,23.9,15.7,0000.0,0008.24,0002.23,0001.60
2022-04-24 14:58:00,,0826.4,4.99,0.00,22.0,21.5,00.0,30.9,23.8,15.5,0000.0,0007.76,0002.19,0001.58
2022-04-24 14:59:00,,0826.4,5.01,0.00,22.0,21.5,00.0,31.0,23.8,15.4,0000.0,0007.45,0002.21,0001.57
